Flag for U.S.A. Weather past 2 weeks in Springfield, Illinois, U.S.A.

Now
65 °F

Clear.


Feels Like: 65 °F
Forecast: 63 / 83 °F
Wind: 3 mph from Southwest

Location: Capital Airport

Current Time: Sep 3, 2014 at 3:41:21 AM

Latest Report: Sep 3, 2014 at 2:52 AM


Visibility: 10 mi

Pressure: 29.98 "Hg

Humidity: 94%

Dew point: 63 °F

Location of SpringfieldLocation

Historic Weather in Springfield — Graph

°F

Springfield temperature yesterday

Maximum temperature yesterday: 83 °F (at 3:52 PM)
Minimum temperature yesterday: 69 °F (at 9:52 PM)
Average temperature yesterday: 74 °F

Past Weeks' High & Low Weather Summary

 TemperatureHumidityPressure
High96 °F (Aug 25, 4:52 PM)100% (Aug 28, 9:02 PM)30.11 "Hg (Aug 28, 9:02 PM)
Low67 °F (Aug 20, 4:52 AM)51% (Aug 25, 4:52 PM)29.67 "Hg (Sep 1, 8:52 AM)
Average79 °F79%29.94 "Hg
* Reported Aug 19 1:52 AM — Sep 3 1:52 AM, Springfield, Weather by CustomWeather, © 2014

Note: Actual official high and low records may vary slightly from our data, if they occured in-between our weather recording intervals... More about our weather records

Advertising

Springfield weather history for previous 24 hours

 ConditionsComfort  
Time TempWeatherWind HumidityBarometerVisibility
1:52 AM
Sep 3
67 °FClear.3 mph93%29.99 "Hg10 mi
12:52 AM68 °FPassing clouds.3 mph90%30.00 "Hg10 mi
11:52 PM
Sep 2
69 °FPassing clouds.3 mph87%30.00 "Hg10 mi
10:52 PM69 °FLight rain. Passing clouds.5 mph90%29.99 "Hg10 mi
9:52 PM69 °FPassing clouds.No wind90%29.98 "Hg10 mi
8:52 PM71 °FClear.5 mph87%29.95 "Hg10 mi
7:52 PM73 °FSunny.5 mph88%29.93 "Hg10 mi
6:52 PM81 °FSunny.3 mph62%29.90 "Hg10 mi
5:52 PM82 °FSunny.6 mph58%29.91 "Hg10 mi
4:52 PM82 °FSunny.5 mph58%29.92 "Hg10 mi
3:52 PM83 °FPartly sunny.5 mph59%29.93 "Hg10 mi
2:52 PM82 °FPassing clouds.7 mph63%29.95 "Hg10 mi
1:52 PM81 °FScattered clouds.7 mph65%29.96 "Hg10 mi
12:52 PM78 °FBroken clouds.N/A74%29.95 "Hg10 mi
11:52 AM76 °FOvercast.6 mph77%29.94 "Hg10 mi
10:52 AM75 °FOvercast.5 mph79%29.94 "Hg10 mi
10:02 AM74 °FMore clouds than sun.6 mph82%29.96 "Hg10 mi
9:52 AM73 °FMostly cloudy.6 mph84%29.95 "Hg10 mi
8:52 AM72 °FScattered clouds.5 mph84%29.93 "Hg10 mi
7:52 AM71 °FOvercast.6 mph90%29.91 "Hg10 mi
6:59 AM70 °FLow clouds.3 mph93%29.92 "Hg10 mi
5:52 AM70 °FLow clouds.5 mph93%29.90 "Hg10 mi
4:52 AM71 °FLow clouds.3 mph90%29.89 "Hg10 mi
3:52 AM71 °FLow clouds.7 mph93%29.87 "Hg10 mi
Weather by CustomWeather, © 2014

See weather overviewHow to use our weather pages